星链-5561 (STARLINK-5561 )

导读 | 星芒AI

STARLINK-5561 是 SpaceX Starlink 卫星互联网项目中的一颗低轨卫星,属于第55组发射批次。该卫星旨在为全球用户提供高速、低延迟的宽带互联网服务,特别服务于网络基础设施薄弱的地区。它运行在约550公里高的近地轨道,采用先进通信技术,支持Ka和Ku频段传输。STARLINK-5561 与其他 Starlink 卫星协同工作,构建起覆盖全球的卫星通信网络,助力实现全球互联网接入的普及。

基本信息
目录编号:
56337
目录名称:
STARLINK-5561
国际标识:
2023-058W
轨道中心:
EARTH
卫星名称:
星链-5561
卫星全名:
星链-5561 (STARLINK-5561 )
卫星状态:
在轨 (已飞行969 天)
发射日期:
2023-04-27 UTC
国别 :
美国 (US)
星等 :
--
轨道信息
数据来源 国际轨道数据 AOE轨道数据
星历时间 2025-12-21T06:20:59+0800
16小时前
查看轨道信息
2025-12-21T13:00:00+0800
9小时前
查看轨道信息
半长轴 6941.143km 6941.161km
偏心率 0.0002353 0.0000702
轨道倾角 97.602° 97.605°
近地点辐角 49.403° 39.021°
升交点赤经 353.096° 353.369°
平近点角 310.740° 17.721°
近地点 561.372km 562.536km
远地点 564.64km 563.512km
周期 95.919分钟 95.920分钟
每日圈数 15.012614 15.012555
详细信息
固有亮度:
5
最大亮度:
2.5
卫星平台:
Starlink v1.5
覆盖范围:
全球
运营商:
太空探索技术公司
运营商所在国:
美国
制造商(研发单位):
太空探索技术公司
制造商所在国:
美国
使用方式:
暂无
卫星简介
星链(Starlink)计划是由太空探索技术公司(SpaceX)提出的一个巨型低轨卫星互联网星座项目,计划在2019年至2024年间在太空搭建由约1.2万颗卫星组成的“星链”网络,其中1584颗将部署在地球上空550千米处的近地轨道,并从2020年开始工作。该卫星仍在工作。
2D轨道图
3D轨道图
轨道高度分析图
轨道倾角分析图
轨道综合分析图
查看轨道综合分析图